Location: Newark
(47.5833°N, 8.1500°E)
Time: 18:17:15
(UTC+00:00)

Transit 2A - Pass Details

Date: 04 November 2020
Orbit: 595 x 964 km, 66.7° (Epoch: 01 December)

Event Time Altitude Azimuth Distance (km) Brightness Sun altitude
Rises 08:03:05 0° 321° (NW) 3,421 8.7 14.2°
Reaches altitude 10° 08:05:46 10° 316° (NW) 2,422 8.0 14.5°
Maximum altitude 08:10:59 43° 246° (WSW) 1,053 6.8 15.2°
Drops below altitude 10° 08:15:40 10° 175° (S) 2,172 9.3 15.7°
Sets 08:17:57 0° 168° (SSE) 3,032 10.1 16.0°
